Broken Bow, NE

9:42 PM CST on February 05, 2016 (GMT -0600)
Broken Bow Municipal

Weather History for KBBW - January, 2012

Change the Weather History Date:

Saturday, January 14, 2012

  Actual Average Record
Temperature  
Mean Temperature 36 °F 26 °F  
Max Temperature 46 °F 38 °F 66 °F (2006)
Min Temperature 25 °F 14 °F -19 °F (1972)
Degree Days  
Heating Degree Days 29 39  
Month to date heating degree days 451 553  
Cooling Degree Days 0 0  
Month to date cooling degree days 0 0  
Year to date cooling degree days 0 0  
Moisture  
Dew Point 14 °F    
Average Humidity 47    
Maximum Humidity 74    
Minimum Humidity 19    
Precipitation  
Precipitation 0.00 in 0.01 in 0.26 in (2001)
Sea Level Pressure  
Sea Level Pressure 30.09 in    
Wind  
Wind Speed 14 mph (West)    
Max Wind Speed 30 mph    
Max Gust Speed 38 mph    
Visibility 10 miles    
Events      
T = Trace of Precipitation, MM = Missing Value Source: NWS Daily Summary

Daily Weather History Graph

Daily Weather History Graph

Search for Another Location

Airport or City:

Trip Planner

Search our weather history database for the weather conditions in past years. The results will help you decide how hot, cold, wet, or windy it might be!

Date:

Astronomy

Jan. 14, 2012 Rise Set
Actual Time 8:03 AM CST 5:32 PM CST
Civil Twilight 7:32 AM CST 6:02 PM CST
Nautical Twilight 6:58 AM CST 6:37 PM CST
Astronomical Twilight 6:25 AM CST 7:10 PM CST
Moon No Moon Rise 10:44 AM CST (1/14)
Length of Visible Light 10h 30m
Length of Day
9h 29m
Waning Gibbous, 68% of the Moon is Illuminated
Jan 14
Waning Gibbous
Jan 16
Last Quarter
Jan 23
New
Jan 30
First Quarter
Feb 7
Full

Hourly Weather History & Observations

Time (CST) Temp. Windchill Dew Point Humidity Pressure Visibility Wind Dir Wind Speed Gust Speed Precip Events Conditions
12:53 AM 35.1 °F 22.2 °F 19.0 °F 52% 29.99 in 10.0 mi NW 27.6 mph 34.5 mph N/A   Mostly Cloudy
1:53 AM 35.1 °F 22.5 °F 21.0 °F 57% 30.01 in 10.0 mi NW 26.5 mph 35.7 mph N/A   Overcast
2:53 AM 30.9 °F 17.5 °F 21.0 °F 67% 30.05 in 10.0 mi NW 24.2 mph 33.4 mph N/A   Overcast
3:53 AM 32.0 °F 19.2 °F 21.9 °F 66% 30.08 in 10.0 mi NW 23.0 mph 32.2 mph N/A   Mostly Cloudy
4:53 AM 30.9 °F 17.2 °F 21.0 °F 67% 30.11 in 10.0 mi NW 25.3 mph 29.9 mph N/A   Overcast
5:49 AM 28.4 °F 15.1 °F 19.4 °F 69% 30.08 in 10.0 mi NW 20.7 mph - N/A   Scattered Clouds
5:53 AM 28.0 °F 15.3 °F 19.0 °F 69% 30.15 in 10.0 mi NW 18.4 mph 27.6 mph N/A   Partly Cloudy
6:53 AM 25.0 °F 13.6 °F 17.1 °F 72% 30.19 in 10.0 mi NW 12.7 mph - N/A   Clear
7:53 AM 26.1 °F 14.0 °F 15.1 °F 63% 30.19 in 10.0 mi NW 15.0 mph - N/A   Clear
8:53 AM 28.4 °F 17.5 °F 15.8 °F 59% 30.13 in 10.0 mi NW 13.8 mph - N/A   Clear
9:53 AM 33.1 °F 24.9 °F 14.0 °F 46% 30.20 in 10.0 mi WNW 10.4 mph - N/A   Clear
10:53 AM 36.0 °F 28.5 °F 14.0 °F 41% 30.21 in 10.0 mi NW 10.4 mph - N/A   Clear
11:53 AM 39.0 °F 31.4 °F 12.0 °F 33% 30.19 in 10.0 mi WNW 12.7 mph - N/A   Clear
12:53 PM 42.1 °F 36.6 °F 10.0 °F 27% 30.15 in 10.0 mi WNW 9.2 mph 16.1 mph N/A   Clear
1:53 PM 43.0 °F 36.8 °F 7.0 °F 23% 30.12 in 10.0 mi West 11.5 mph 17.3 mph N/A   Clear
2:53 PM 43.0 °F 36.8 °F 7.0 °F 23% 30.11 in 10.0 mi WSW 11.5 mph - N/A   Clear
3:53 PM 45.0 °F 38.9 °F 5.0 °F 19% 30.08 in 10.0 mi SSW 12.7 mph - N/A   Overcast
4:53 PM 42.1 °F 36.1 °F 8.1 °F 25% 30.08 in 10.0 mi SSW 10.4 mph - N/A   Clear
5:53 PM 33.1 °F 26.1 °F 8.1 °F 35% 30.09 in 10.0 mi South 8.1 mph - N/A   Clear
6:53 PM 33.1 °F 26.9 °F 9.0 °F 37% 30.09 in 10.0 mi South 6.9 mph - N/A   Clear
7:53 PM 28.0 °F 22.8 °F 9.0 °F 45% 30.08 in 10.0 mi South 4.6 mph - N/A   Clear
8:53 PM 32.0 °F 24.8 °F 10.9 °F 42% 30.05 in 10.0 mi South 8.1 mph - N/A   Clear
9:53 PM 32.0 °F 24.2 °F 10.4 °F 41% 29.95 in 10.0 mi South 9.2 mph - N/A   Clear
10:53 PM 30.0 °F 23.2 °F 12.9 °F 49% 29.99 in 10.0 mi South 6.9 mph - N/A   Clear
11:53 PM 34.0 °F 27.2 °F 15.1 °F 46% 29.95 in 10.0 mi South 8.1 mph - N/A   Clear